Weather History for Vancouver, WA

Change the Weather History Date:

Monday, April 21, 2014

  Actual Average Record
Temperature  
Mean Temperature 57 °F 53 °F  
Max Temperature 65 °F 62 °F 88 °F (1947)
Min Temperature 48 °F 43 °F 32 °F (1950)
Degree Days  
Heating Degree Days 8    
Month to date heating degree days 253  
Since 1 July heating degree days 4235  
Cooling Degree Days 0    
Month to date cooling degree days 0  
Year to date cooling degree days 0  
Growing Degree Days 6 (Base 50)    
Moisture  
Dew Point 44 °F    
Average Humidity 62    
Maximum Humidity 83    
Minimum Humidity 40    
Precipitation  
Precipitation 0.05 in 0.11 in 0.52 in (1961)
Month to date precipitation 1.36 2.18  
Year to date precipitation 14.77 15.28  
Sea Level Pressure  
Sea Level Pressure 29.96 in    
Wind  
Wind Speed 3 mph (WNW)    
Max Wind Speed 9 mph    
Max Gust Speed 13 mph    
Visibility 9 miles    
Events Rain    
T = Trace of Precipitation, MM = Missing Value Source: NWS Daily Summary

Daily Weather History Graph

Daily Weather History Graph

Search for Another Location

Airport:

Trip Planner

Search our weather history database for the weather conditions in past years. The results will help you decide how hot, cold, wet, or windy it might be!

Date:

Astronomy

Apr. 21, 2014 Rise Set
Actual Time 6:14 AM PDT 8:05 PM PDT
Civil Twilight 5:42 AM PDT 8:36 PM PDT
Nautical Twilight 5:04 AM PDT 9:15 PM PDT
Astronomical Twilight 4:21 AM PDT 9:58 PM PDT
Moon 1:43 AM PDT (4/21) 11:43 AM PDT (4/21)
Length of Visible Light 14h 54m
Length of Day
13h 50m
Waning Gibbous, 56% of the Moon is Illuminated
Apr 21
Waning Gibbous
Apr 22
Last Quarter
Apr 28
New
May 6
First Quarter
May 14
Full

Hourly Weather History & Observations

Time (PDT) Temp. Dew Point Humidity Pressure Visibility Wind Dir Wind Speed Gust Speed Precip Events Conditions
12:53 AM 53.1 °F 41.0 °F 64% 30.12 in 10.0 mi WNW 3.5 mph - N/A   Clear
1:53 AM 50.0 °F 41.0 °F 71% 30.11 in 10.0 mi NW 3.5 mph - N/A   Clear
2:53 AM 48.9 °F 41.0 °F 74% 30.11 in 10.0 mi NW 3.5 mph - N/A   Clear
3:53 AM 48.0 °F 42.1 °F 80% 30.09 in 10.0 mi Calm Calm - N/A   Clear
4:53 AM 48.9 °F 42.1 °F 77% 30.08 in 10.0 mi Calm Calm - N/A   Partly Cloudy
5:53 AM 50.0 °F 42.1 °F 74% 30.04 in 10.0 mi Calm Calm - N/A   Clear
6:53 AM 48.9 °F 43.0 °F 80% 30.04 in 10.0 mi West 3.5 mph - N/A   Partly Cloudy
7:53 AM 50.0 °F 43.0 °F 77% 30.06 in 10.0 mi Calm Calm - N/A   Overcast
8:53 AM 51.1 °F 44.1 °F 77% 30.05 in 10.0 mi ESE 5.8 mph - N/A   Overcast
9:53 AM 51.1 °F 44.1 °F 77% 30.05 in 10.0 mi ESE 6.9 mph - N/A   Clear
10:53 AM 54.0 °F 44.1 °F 69% 30.03 in 10.0 mi South 4.6 mph - N/A   Clear
11:53 AM 55.9 °F 43.0 °F 62% 29.99 in 10.0 mi SE 8.1 mph - N/A   Clear
12:53 PM 60.1 °F 41.0 °F 49% 29.96 in 10.0 mi Calm Calm - N/A   Clear
1:53 PM 63.0 °F 39.0 °F 41% 29.92 in 10.0 mi Variable 3.5 mph - N/A   Clear
2:53 PM 64.0 °F 39.9 °F 41% 29.90 in 10.0 mi West 5.8 mph - N/A   Clear
3:53 PM 63.0 °F 39.0 °F 41% 29.88 in 10.0 mi West 3.5 mph - N/A   Clear
4:53 PM 62.1 °F 39.0 °F 43% 29.88 in 10.0 mi West 4.6 mph - N/A   Overcast
5:53 PM 55.9 °F 46.0 °F 69% 29.91 in 9.0 mi West 6.9 mph - 0.01 in Rain Light Rain
6:53 PM 54.0 °F 48.9 °F 83% 29.91 in 8.0 mi Calm Calm - 0.04 in Rain Light Rain
7:35 PM 54.0 °F 48.9 °F 83% 29.91 in 9.0 mi Variable 3.5 mph - 0.00 in Rain Light Rain
7:53 PM 53.1 °F 48.9 °F 86% 29.89 in 6.0 mi Calm Calm - 0.01 in Rain Light Rain
8:53 PM 52.0 °F 48.9 °F 89% 29.88 in 8.0 mi Calm Calm - 0.03 in Rain Light Rain
8:58 PM 52.0 °F 48.9 °F 89% 29.88 in 4.0 mi Calm Calm - 0.01 in Rain Rain
9:06 PM 51.1 °F 46.0 °F 83% 29.88 in 8.0 mi West 8.1 mph - 0.02 in Rain Light Rain
9:53 PM 50.0 °F 46.9 °F 89% 29.88 in 7.0 mi WNW 8.1 mph - 0.03 in Rain Light Rain
10:18 PM 50.0 °F 46.9 °F 89% 29.88 in 4.0 mi WNW 5.8 mph - 0.05 in Rain Light Rain
10:24 PM 50.0 °F 46.9 °F 89% 29.88 in 2.5 mi WSW 5.8 mph - 0.08 in Rain Rain
10:33 PM 50.0 °F 46.9 °F 89% 29.88 in 5.0 mi NW 4.6 mph - 0.10 in Rain Light Rain
10:53 PM 50.0 °F 48.0 °F 93% 29.88 in 8.0 mi WNW 3.5 mph - 0.11 in Rain Light Rain
11:39 PM 50.0 °F 46.0 °F 86% 29.87 in 7.0 mi NW 4.6 mph - 0.05 in Rain Light Rain
11:53 PM 50.0 °F 45.0 °F 83% 29.88 in 10.0 mi NNW 3.5 mph - 0.05 in   Overcast